HISTORICAL SENSOR DATA

Sensor Data Report

DB LIVE
CURRENT TIME--:--:--
DEVICE NETWORK Gateway Status
13 ESP · realtime ~1s · history 60s
Weather WS-MOD-01
OFFLINE
Actuator ACT-MOD-01
OFFLINE
Mainboard L3 MB-L3-01
OFFLINE
Mainboard L5 MB-L5-01
OFFLINE
Remote AC AC-REMOTE-01
OFFLINE
PZEM L3-01 PWR-L3-01
OFFLINE
PZEM L3-02 PWR-L3-02
OFFLINE
PZEM L3-03 PWR-L3-03
OFFLINE
PZEM L3-04 PWR-L3-04
OFFLINE
PZEM L5-01 PWR-L5-01
OFFLINE
PZEM L5-02 PWR-L5-02
OFFLINE
PZEM L5-03 PWR-L5-03
OFFLINE
PZEM L5-04 PWR-L5-04
OFFLINE
REPORT FILTER

Periode & Sensor

DATABASE HISTORY
RESET
QUICK RANGE Hari ini 7 hari 30 hari
PERIODE04 Aug 2026sampai 02 Sep 2026
TOTAL DATA40,278sensor readings
MINIMUM-0.50sesuai filter
AVERAGE56.78sesuai filter
MAXIMUM998.00sesuai filter
REPORT RESULT

Data Sensor

04/08/2026 — 02/09/2026 EXPORT CSV
NOTANGGALWAKTUDEVICECHANNELSENSORVALUEUNIT
10301 02/09/2026 14:55:38 MB-L3-01Mainboard Lantai 3 L3-SHT-03-T SHT20 3 Temperature 31.80 °C
10302 02/09/2026 14:55:38 MB-L5-01Mainboard Lantai 5 L5-AI-06 Analog Input 6 3.05 V
10303 02/09/2026 14:55:38 MB-L5-01Mainboard Lantai 5 L5-SHT-02-RH SHT20 2 Humidity 48.50 %RH
10304 02/09/2026 14:55:38 MB-L3-01Mainboard Lantai 3 L3-AI-04 Analog Input 4 3.12 V
10305 02/09/2026 14:55:38 MB-L3-01Mainboard Lantai 3 L3-BGT-02 Black Globe Temperature 2 29.80 °C
10306 02/09/2026 14:55:38 MB-L3-01Mainboard Lantai 3 L3-RAD-01 Radiation 1 1.00 W/m²
10307 02/09/2026 14:55:38 MB-L5-01Mainboard Lantai 5 L5-AI-05 Analog Input 5 3.05 V
10308 02/09/2026 14:55:38 MB-L5-01Mainboard Lantai 5 L5-SHT-03-T SHT20 3 Temperature 32.10 °C
10309 02/09/2026 14:55:38 MB-L5-01Mainboard Lantai 5 L5-SHT-02-T SHT20 2 Temperature 32.20 °C
10310 02/09/2026 14:55:38 MB-L5-01Mainboard Lantai 5 L5-SHT-03-RH SHT20 3 Humidity 49.20 %RH
10311 02/09/2026 14:55:38 MB-L5-01Mainboard Lantai 5 L5-AI-04 Analog Input 4 3.05 V
10312 02/09/2026 14:55:38 MB-L3-01Mainboard Lantai 3 L3-ST-01 Surface Temperature 1 29.80 °C
10313 02/09/2026 14:55:36 MB-L3-01Mainboard Lantai 3 L3-AI-06 Analog Input 6 3.12 V
10314 02/09/2026 14:55:36 MB-L3-01Mainboard Lantai 3 L3-LUX-06 Illuminance / LUX 6 30.30 lux
10315 02/09/2026 14:55:36 MB-L3-01Mainboard Lantai 3 L3-AI-01 Analog Input 1 3.12 V
10316 02/09/2026 14:55:36 MB-L5-01Mainboard Lantai 5 L5-BGT-03 Black Globe Temperature 3 29.70 °C
10317 02/09/2026 14:55:36 MB-L3-01Mainboard Lantai 3 L3-SHT-01-T SHT20 1 Temperature 32.20 °C
10318 02/09/2026 14:55:36 MB-L3-01Mainboard Lantai 3 L3-HFT-01 Heat Flow Temperature 1 29.50 °C
10319 02/09/2026 14:55:36 MB-L5-01Mainboard Lantai 5 L5-LUX-03 Illuminance / LUX 3 176.10 lux
10320 02/09/2026 14:55:36 MB-L5-01Mainboard Lantai 5 L5-BGT-02 Black Globe Temperature 2 29.80 °C
10321 02/09/2026 14:55:36 MB-L3-01Mainboard Lantai 3 L3-LUX-02 Illuminance / LUX 2 62.10 lux
10322 02/09/2026 14:55:36 MB-L3-01Mainboard Lantai 3 L3-SHT-01-RH SHT20 1 Humidity 48.50 %RH
10323 02/09/2026 14:55:36 MB-L5-01Mainboard Lantai 5 L5-BGT-01 Black Globe Temperature 1 30.00 °C
10324 02/09/2026 14:55:36 MB-L3-01Mainboard Lantai 3 L3-AI-02 Analog Input 2 3.12 V
10325 02/09/2026 14:55:36 MB-L5-01Mainboard Lantai 5 L5-SHT-01-T SHT20 1 Temperature 32.30 °C
10326 02/09/2026 14:55:36 MB-L3-01Mainboard Lantai 3 L3-LUX-04 Illuminance / LUX 4 85.50 lux
10327 02/09/2026 14:55:36 MB-L5-01Mainboard Lantai 5 L5-HFT-02 Heat Flow Temperature 2 29.90 °C
10328 02/09/2026 14:55:36 MB-L3-01Mainboard Lantai 3 L3-HFT-02 Heat Flow Temperature 2 29.00 °C
10329 02/09/2026 14:55:36 MB-L5-01Mainboard Lantai 5 L5-HFT-01 Heat Flow Temperature 1 30.10 °C
10330 02/09/2026 14:55:36 MB-L5-01Mainboard Lantai 5 L5-LUX-06 Illuminance / LUX 6 237.20 lux
10331 02/09/2026 14:55:36 MB-L5-01Mainboard Lantai 5 L5-ST-02 Surface Temperature 2 30.40 °C
10332 02/09/2026 14:55:36 MB-L3-01Mainboard Lantai 3 L3-LUX-03 Illuminance / LUX 3 111.10 lux
10333 02/09/2026 14:55:36 MB-L5-01Mainboard Lantai 5 L5-LUX-04 Illuminance / LUX 4 232.00 lux
10334 02/09/2026 14:55:36 MB-L3-01Mainboard Lantai 3 L3-AI-03 Analog Input 3 3.12 V
10335 02/09/2026 14:55:36 MB-L5-01Mainboard Lantai 5 L5-LUX-02 Illuminance / LUX 2 155.00 lux
10336 02/09/2026 14:55:36 MB-L5-01Mainboard Lantai 5 L5-ST-01 Surface Temperature 1 30.30 °C
10337 02/09/2026 14:55:36 MB-L3-01Mainboard Lantai 3 L3-SHT-03-RH SHT20 3 Humidity 49.30 %RH
10338 02/09/2026 14:55:36 MB-L3-01Mainboard Lantai 3 L3-SHT-02-RH SHT20 2 Humidity 48.60 %RH
10339 02/09/2026 14:55:36 MB-L3-01Mainboard Lantai 3 L3-BGT-01 Black Globe Temperature 1 29.70 °C
10340 02/09/2026 14:55:36 MB-L5-01Mainboard Lantai 5 L5-RAD-02 Radiation 2 1.00 W/m²
10341 02/09/2026 14:55:36 MB-L3-01Mainboard Lantai 3 L3-LUX-01 Illuminance / LUX 1 35.90 lux
10342 02/09/2026 14:55:36 MB-L5-01Mainboard Lantai 5 L5-LUX-05 Illuminance / LUX 5 426.40 lux
10343 02/09/2026 14:55:36 MB-L3-01Mainboard Lantai 3 L3-RAD-02 Radiation 2 1.00 W/m²
10344 02/09/2026 14:55:36 MB-L3-01Mainboard Lantai 3 L3-SHT-03-T SHT20 3 Temperature 31.70 °C
10345 02/09/2026 14:55:36 MB-L5-01Mainboard Lantai 5 L5-AI-06 Analog Input 6 3.05 V
10346 02/09/2026 14:55:36 MB-L5-01Mainboard Lantai 5 L5-SHT-02-RH SHT20 2 Humidity 48.50 %RH
10347 02/09/2026 14:55:36 MB-L3-01Mainboard Lantai 3 L3-AI-04 Analog Input 4 3.12 V
10348 02/09/2026 14:55:36 MB-L3-01Mainboard Lantai 3 L3-BGT-02 Black Globe Temperature 2 29.80 °C
10349 02/09/2026 14:55:36 MB-L3-01Mainboard Lantai 3 L3-RAD-01 Radiation 1 1.00 W/m²
10350 02/09/2026 14:55:36 MB-L5-01Mainboard Lantai 5 L5-AI-05 Analog Input 5 3.05 V
10351 02/09/2026 14:55:36 MB-L5-01Mainboard Lantai 5 L5-SHT-03-T SHT20 3 Temperature 32.10 °C
10352 02/09/2026 14:55:36 MB-L5-01Mainboard Lantai 5 L5-SHT-02-T SHT20 2 Temperature 32.20 °C
10353 02/09/2026 14:55:36 MB-L5-01Mainboard Lantai 5 L5-SHT-03-RH SHT20 3 Humidity 49.10 %RH
10354 02/09/2026 14:55:36 MB-L5-01Mainboard Lantai 5 L5-AI-04 Analog Input 4 3.05 V
10355 02/09/2026 14:55:36 MB-L3-01Mainboard Lantai 3 L3-ST-01 Surface Temperature 1 29.80 °C
10356 02/09/2026 14:55:36 MB-L5-01Mainboard Lantai 5 L5-AI-03 Analog Input 3 3.05 V
10357 02/09/2026 14:55:36 MB-L3-01Mainboard Lantai 3 L3-AI-05 Analog Input 5 3.12 V
10358 02/09/2026 14:55:36 MB-L5-01Mainboard Lantai 5 L5-RAD-01 Radiation 1 1.00 W/m²
10359 02/09/2026 14:55:36 MB-L3-01Mainboard Lantai 3 L3-SHT-02-T SHT20 2 Temperature 32.00 °C
10360 02/09/2026 14:55:36 MB-L5-01Mainboard Lantai 5 L5-AI-02 Analog Input 2 3.05 V
10361 02/09/2026 14:55:36 MB-L3-01Mainboard Lantai 3 L3-BGT-03 Black Globe Temperature 3 29.10 °C
10362 02/09/2026 14:55:36 MB-L5-01Mainboard Lantai 5 L5-SHT-01-RH SHT20 1 Humidity 48.40 %RH
10363 02/09/2026 14:55:36 MB-L3-01Mainboard Lantai 3 L3-LUX-05 Illuminance / LUX 5 56.20 lux
10364 02/09/2026 14:55:36 MB-L3-01Mainboard Lantai 3 L3-ST-02 Surface Temperature 2 29.80 °C
10365 02/09/2026 14:55:36 MB-L5-01Mainboard Lantai 5 L5-LUX-01 Illuminance / LUX 1 211.50 lux
10366 02/09/2026 14:55:36 MB-L5-01Mainboard Lantai 5 L5-AI-01 Analog Input 1 3.05 V
10367 02/09/2026 14:55:35 MB-L3-01Mainboard Lantai 3 L3-AI-02 Analog Input 2 3.12 V
10368 02/09/2026 14:55:35 MB-L3-01Mainboard Lantai 3 L3-LUX-04 Illuminance / LUX 4 73.90 lux
10369 02/09/2026 14:55:35 MB-L3-01Mainboard Lantai 3 L3-HFT-02 Heat Flow Temperature 2 29.10 °C
10370 02/09/2026 14:55:35 MB-L3-01Mainboard Lantai 3 L3-LUX-03 Illuminance / LUX 3 93.10 lux
10371 02/09/2026 14:55:35 MB-L3-01Mainboard Lantai 3 L3-AI-03 Analog Input 3 3.12 V
10372 02/09/2026 14:55:35 MB-L3-01Mainboard Lantai 3 L3-SHT-03-RH SHT20 3 Humidity 49.30 %RH
10373 02/09/2026 14:55:35 MB-L3-01Mainboard Lantai 3 L3-SHT-02-RH SHT20 2 Humidity 48.40 %RH
10374 02/09/2026 14:55:35 MB-L3-01Mainboard Lantai 3 L3-BGT-01 Black Globe Temperature 1 29.80 °C
10375 02/09/2026 14:55:35 MB-L3-01Mainboard Lantai 3 L3-LUX-01 Illuminance / LUX 1 28.10 lux
10376 02/09/2026 14:55:35 MB-L3-01Mainboard Lantai 3 L3-RAD-02 Radiation 2 1.00 W/m²
10377 02/09/2026 14:55:35 MB-L3-01Mainboard Lantai 3 L3-SHT-03-T SHT20 3 Temperature 31.70 °C
10378 02/09/2026 14:55:35 MB-L3-01Mainboard Lantai 3 L3-AI-04 Analog Input 4 3.12 V
10379 02/09/2026 14:55:35 MB-L3-01Mainboard Lantai 3 L3-BGT-02 Black Globe Temperature 2 29.70 °C
10380 02/09/2026 14:55:35 MB-L3-01Mainboard Lantai 3 L3-RAD-01 Radiation 1 1.00 W/m²
10381 02/09/2026 14:55:35 MB-L3-01Mainboard Lantai 3 L3-ST-01 Surface Temperature 1 29.90 °C
10382 02/09/2026 14:55:35 MB-L3-01Mainboard Lantai 3 L3-AI-05 Analog Input 5 3.12 V
10383 02/09/2026 14:55:35 MB-L3-01Mainboard Lantai 3 L3-SHT-02-T SHT20 2 Temperature 32.00 °C
10384 02/09/2026 14:55:35 MB-L3-01Mainboard Lantai 3 L3-BGT-03 Black Globe Temperature 3 29.20 °C
10385 02/09/2026 14:55:35 MB-L3-01Mainboard Lantai 3 L3-LUX-05 Illuminance / LUX 5 42.60 lux
10386 02/09/2026 14:55:35 MB-L3-01Mainboard Lantai 3 L3-ST-02 Surface Temperature 2 29.80 °C
10387 02/09/2026 14:55:35 MB-L3-01Mainboard Lantai 3 L3-AI-06 Analog Input 6 3.12 V
10388 02/09/2026 14:55:35 MB-L3-01Mainboard Lantai 3 L3-LUX-06 Illuminance / LUX 6 25.10 lux
10389 02/09/2026 14:55:35 MB-L3-01Mainboard Lantai 3 L3-AI-01 Analog Input 1 3.12 V
10390 02/09/2026 14:55:35 MB-L3-01Mainboard Lantai 3 L3-SHT-01-T SHT20 1 Temperature 32.10 °C
10391 02/09/2026 14:55:35 MB-L3-01Mainboard Lantai 3 L3-HFT-01 Heat Flow Temperature 1 29.40 °C
10392 02/09/2026 14:55:35 MB-L3-01Mainboard Lantai 3 L3-LUX-02 Illuminance / LUX 2 48.50 lux
10393 02/09/2026 14:55:35 MB-L3-01Mainboard Lantai 3 L3-SHT-01-RH SHT20 1 Humidity 48.40 %RH
10394 02/09/2026 14:55:34 MB-L5-01Mainboard Lantai 5 L5-BGT-01 Black Globe Temperature 1 30.00 °C
10395 02/09/2026 14:55:34 MB-L5-01Mainboard Lantai 5 L5-SHT-01-T SHT20 1 Temperature 32.20 °C
10396 02/09/2026 14:55:34 MB-L5-01Mainboard Lantai 5 L5-HFT-02 Heat Flow Temperature 2 29.80 °C
10397 02/09/2026 14:55:34 MB-L5-01Mainboard Lantai 5 L5-HFT-01 Heat Flow Temperature 1 30.00 °C
10398 02/09/2026 14:55:34 MB-L5-01Mainboard Lantai 5 L5-LUX-06 Illuminance / LUX 6 223.80 lux
10399 02/09/2026 14:55:34 MB-L5-01Mainboard Lantai 5 L5-ST-02 Surface Temperature 2 29.90 °C
10400 02/09/2026 14:55:34 MB-L5-01Mainboard Lantai 5 L5-LUX-04 Illuminance / LUX 4 217.90 lux
Menampilkan maksimal 100 data per halaman